Time,TemperatureF,DewpointF,PressureIn,WindDirection,WindDirectionDegrees,WindSpeedMPH,WindSpeedGustMPH,Humidity,HourlyPrecipIn,Conditions,Clouds,dailyrainin,SoftwareType,DateUTC
2013-04-19 00:01:00,69.6,63.5,29.76,SSE,159,1.0,3.0,81,0.00,,,0.00,WeatherCatV1.00B22,2013-04-19 04:01:00,
2013-04-19 00:06:00,69.5,63.4,29.76,SSE,153,0.0,2.0,81,0.00,,,0.00,WeatherCatV1.00B22,2013-04-19 04:06:00,
2013-04-19 00:11:00,69.4,63.3,29.76,South,169,2.0,3.0,81,0.00,,,0.00,WeatherCatV1.00B22,2013-04-19 04:11:00,
2013-04-19 00:16:00,69.4,63.7,29.75,SSE,161,2.0,2.0,82,0.00,,,0.00,WeatherCatV1.00B22,2013-04-19 04:16:00,
2013-04-19 00:21:00,69.3,63.6,29.75,SSE,154,2.0,2.0,82,0.00,,,0.00,WeatherCatV1.00B22,2013-04-19 04:21:00,
2013-04-19 00:26:00,69.2,63.8,29.75,South,169,1.0,3.0,83,0.00,,,0.00,WeatherCatV1.00B22,2013-04-19 04:26:00,
2013-04-19 00:31:00,69.2,63.8,29.75,South,170,2.0,3.0,83,0.00,,,0.00,WeatherCatV1.00B22,2013-04-19 04:31:00,
2013-04-19 00:36:00,69.2,63.8,29.75,SSW,208,1.0,3.0,83,0.00,,,0.00,WeatherCatV1.00B22,2013-04-19 04:36:00,
2013-04-19 00:41:00,69.2,64.2,29.75,SSE,165,1.0,2.0,84,0.00,,,0.00,WeatherCatV1.00B22,2013-04-19 04:41:00,
2013-04-19 00:46:00,69.2,64.2,29.75,SE,146,1.0,3.0,84,0.00,,,0.00,WeatherCatV1.00B22,2013-04-19 04:46:00,
2013-04-19 00:51:00,69.1,64.1,29.75,South,173,3.0,3.0,84,0.00,,,0.00,WeatherCatV1.00B22,2013-04-19 04:51:00,
2013-04-19 00:56:00,69.0,64.0,29.75,SSE,162,1.0,3.0,84,0.00,,,0.00,WeatherCatV1.00B22,2013-04-19 04:56:00,
2013-04-19 01:01:00,69.0,64.0,29.75,South,181,1.0,3.0,84,0.00,,,0.00,WeatherCatV1.00B22,2013-04-19 05:01:00,
2013-04-19 01:06:00,69.0,64.3,29.75,South,175,1.0,2.0,85,0.00,,,0.00,WeatherCatV1.00B22,2013-04-19 05:06:00,
2013-04-19 01:11:00,68.9,64.2,29.75,SSE,153,3.0,4.0,85,0.00,,,0.00,WeatherCatV1.00B22,2013-04-19 05:11:00,
2013-04-19 01:16:00,68.9,64.2,29.74,South,171,1.0,2.0,85,0.00,,,0.00,WeatherCatV1.00B22,2013-04-19 05:16:00,
2013-04-19 01:21:00,68.9,64.2,29.74,South,173,1.0,3.0,85,0.00,,,0.00,WeatherCatV1.00B22,2013-04-19 05:21:00,
2013-04-19 01:26:00,68.8,64.4,29.74,SSE,160,1.0,3.0,86,0.00,,,0.00,WeatherCatV1.00B22,2013-04-19 05:26:00,
2013-04-19 01:31:00,68.8,64.4,29.74,SSE,163,1.0,2.0,86,0.00,,,0.00,WeatherCatV1.00B22,2013-04-19 05:31:00,
2013-04-19 01:36:00,68.8,64.4,29.74,SSE,165,2.0,4.0,86,0.00,,,0.00,WeatherCatV1.00B22,2013-04-19 05:36:00,
2013-04-19 01:41:00,68.7,64.3,29.74,SSW,212,0.0,3.0,86,0.00,,,0.00,WeatherCatV1.00B22,2013-04-19 05:41:00,
2013-04-19 01:46:00,68.6,64.2,29.74,SW,232,1.0,3.0,86,0.00,,,0.00,WeatherCatV1.00B22,2013-04-19 05:46:00,
2013-04-19 01:51:00,68.6,64.2,29.73,South,171,1.0,2.0,86,0.00,,,0.00,WeatherCatV1.00B22,2013-04-19 05:51:00,
2013-04-19 01:56:00,68.5,64.5,29.73,SSE,159,1.0,3.0,87,0.00,,,0.00,WeatherCatV1.00B22,2013-04-19 05:56:00,
2013-04-19 02:01:00,68.5,64.5,29.73,SSE,165,1.0,2.0,87,0.00,,,0.00,WeatherCatV1.00B22,2013-04-19 06:01:00,
2013-04-19 02:06:00,68.5,64.5,29.73,SSW,194,0.0,2.0,87,0.00,,,0.00,WeatherCatV1.00B22,2013-04-19 06:06:00,
2013-04-19 02:11:00,68.4,64.4,29.72,SSE,153,2.0,3.0,87,0.00,,,0.00,WeatherCatV1.00B22,2013-04-19 06:11:00,
2013-04-19 02:16:00,68.4,64.4,29.72,South,177,0.0,3.0,87,0.00,,,0.00,WeatherCatV1.00B22,2013-04-19 06:16:00,
2013-04-19 02:21:00,68.3,64.3,29.72,SSE,168,1.0,2.0,87,0.00,,,0.00,WeatherCatV1.00B22,2013-04-19 06:21:00,
2013-04-19 02:26:00,68.3,64.3,29.72,South,169,0.0,3.0,87,0.00,,,0.00,WeatherCatV1.00B22,2013-04-19 06:26:00,
2013-04-19 02:31:00,68.2,64.5,29.71,SSE,154,3.0,4.0,88,0.00,,,0.00,WeatherCatV1.00B22,2013-04-19 06:31:00,
2013-04-19 02:36:00,68.2,64.5,29.71,SSE,154,1.0,2.0,88,0.00,,,0.00,WeatherCatV1.00B22,2013-04-19 06:36:00,
2013-04-19 02:41:00,68.1,64.4,29.71,SSE,166,2.0,3.0,88,0.00,,,0.00,WeatherCatV1.00B22,2013-04-19 06:41:00,
2013-04-19 02:46:00,68.1,64.4,29.71,South,187,0.0,2.0,88,0.00,,,0.00,WeatherCatV1.00B22,2013-04-19 06:46:00,
2013-04-19 02:51:00,68.0,64.3,29.70,SE,146,1.0,4.0,88,0.00,,,0.00,WeatherCatV1.00B22,2013-04-19 06:51:00,
2013-04-19 02:56:00,68.0,64.3,29.70,SSE,164,2.0,2.0,88,0.00,,,0.00,WeatherCatV1.00B22,2013-04-19 06:56:00,
2013-04-19 03:01:00,68.0,64.3,29.70,SSE,158,0.0,3.0,88,0.00,,,0.00,WeatherCatV1.00B22,2013-04-19 07:01:00,
2013-04-19 03:06:00,68.0,64.3,29.70,SSE,158,0.0,2.0,88,0.00,,,0.00,WeatherCatV1.00B22,2013-04-19 07:06:00,
2013-04-19 03:11:00,68.0,64.3,29.69,South,169,0.0,3.0,88,0.00,,,0.00,WeatherCatV1.00B22,2013-04-19 07:11:00,
2013-04-19 03:16:00,67.9,64.2,29.69,SSE,167,1.0,2.0,88,0.00,,,0.00,WeatherCatV1.00B22,2013-04-19 07:16:00,
2013-04-19 03:21:00,67.9,64.5,29.69,SSE,165,1.0,2.0,89,0.00,,,0.00,WeatherCatV1.00B22,2013-04-19 07:21:00,
2013-04-19 03:26:00,67.9,64.5,29.69,SSE,153,0.0,3.0,89,0.00,,,0.00,WeatherCatV1.00B22,2013-04-19 07:26:00,
2013-04-19 03:31:00,67.8,64.1,29.69,South,169,0.0,2.0,88,0.00,,,0.00,WeatherCatV1.00B22,2013-04-19 07:31:00,
2013-04-19 03:36:00,67.8,64.4,29.68,South,178,1.0,3.0,89,0.00,,,0.00,WeatherCatV1.00B22,2013-04-19 07:36:00,
2013-04-19 03:41:00,67.8,64.4,29.68,South,177,0.0,1.0,89,0.00,,,0.00,WeatherCatV1.00B22,2013-04-19 07:41:00,
2013-04-19 03:46:00,67.8,64.4,29.68,South,177,1.0,2.0,89,0.00,,,0.00,WeatherCatV1.00B22,2013-04-19 07:46:00,
2013-04-19 03:51:00,67.8,64.4,29.68,South,177,2.0,2.0,89,0.00,,,0.00,WeatherCatV1.00B22,2013-04-19 07:51:00,
2013-04-19 03:56:00,67.8,64.4,29.68,SW,218,2.0,4.0,89,0.00,,,0.00,WeatherCatV1.00B22,2013-04-19 07:56:00,
2013-04-19 04:01:00,67.7,64.3,29.68,South,175,1.0,2.0,89,0.00,,,0.00,WeatherCatV1.00B22,2013-04-19 08:01:00,
2013-04-19 04:06:00,67.7,64.3,29.68,South,186,1.0,3.0,89,0.00,,,0.00,WeatherCatV1.00B22,2013-04-19 08:06:00,
2013-04-19 04:11:00,67.7,64.3,29.68,South,173,2.0,3.0,89,0.00,,,0.00,WeatherCatV1.00B22,2013-04-19 08:11:00,
2013-04-19 04:16:00,67.7,64.3,29.67,SSW,192,1.0,2.0,89,0.00,,,0.00,WeatherCatV1.00B22,2013-04-19 08:16:00,
2013-04-19 04:21:00,67.6,64.2,29.67,SSE,162,1.0,1.0,89,0.00,,,0.00,WeatherCatV1.00B22,2013-04-19 08:21:00,
2013-04-19 04:26:00,67.6,64.2,29.67,South,180,2.0,2.0,89,0.00,,,0.00,WeatherCatV1.00B22,2013-04-19 08:26:00,
2013-04-19 04:31:00,67.5,64.1,29.66,SW,215,1.0,3.0,89,0.00,,,0.00,WeatherCatV1.00B22,2013-04-19 08:31:00,
2013-04-19 04:36:00,67.4,64.0,29.66,SE,131,1.0,2.0,89,0.00,,,0.00,WeatherCatV1.00B22,2013-04-19 08:36:00,
2013-04-19 04:41:00,67.2,63.8,29.66,SE,132,0.0,2.0,89,0.00,,,0.00,WeatherCatV1.00B22,2013-04-19 08:41:00,
2013-04-19 04:46:00,67.1,64.1,29.66,SSE,157,0.0,1.0,90,0.00,,,0.00,WeatherCatV1.00B22,2013-04-19 08:46:00,
2013-04-19 04:51:00,67.0,64.0,29.66,SW,216,1.0,1.0,90,0.00,,,0.00,WeatherCatV1.00B22,2013-04-19 08:51:00,
2013-04-19 04:56:00,67.0,64.0,29.66,South,183,0.0,1.0,90,0.00,,,0.00,WeatherCatV1.00B22,2013-04-19 08:56:00,
2013-04-19 05:01:00,66.9,63.9,29.66,South,183,1.0,2.0,90,0.00,,,0.00,WeatherCatV1.00B22,2013-04-19 09:01:00,
2013-04-19 05:06:00,66.8,63.8,29.66,South,183,0.0,1.0,90,0.00,,,0.00,WeatherCatV1.00B22,2013-04-19 09:06:00,
2013-04-19 05:11:00,66.8,63.8,29.66,South,183,1.0,2.0,90,0.00,,,0.00,WeatherCatV1.00B22,2013-04-19 09:11:00,
2013-04-19 05:16:00,66.8,63.8,29.66,South,183,1.0,2.0,90,0.00,,,0.00,WeatherCatV1.00B22,2013-04-19 09:16:00,
2013-04-19 05:21:00,66.8,63.8,29.66,South,183,0.0,2.0,90,0.00,,,0.00,WeatherCatV1.00B22,2013-04-19 09:21:00,
2013-04-19 05:26:00,66.8,63.8,29.66,South,182,1.0,2.0,90,0.00,,,0.00,WeatherCatV1.00B22,2013-04-19 09:26:00,
2013-04-19 05:29:00,66.8,63.8,29.66,South,174,0.0,1.0,90,0.00,,,0.00,WeatherCatV1.00B22,2013-04-19 09:29:00,
2013-04-19 05:34:00,66.8,63.8,29.66,SSW,198,1.0,3.0,90,0.00,,,0.00,WeatherCatV1.00B22,2013-04-19 09:34:00,
2013-04-19 05:39:00,66.8,63.8,29.66,South,188,2.0,2.0,90,0.00,,,0.00,WeatherCatV1.00B22,2013-04-19 09:39:00,
2013-04-19 05:44:00,66.9,63.5,29.66,South,188,1.0,2.0,89,0.00,,,0.00,WeatherCatV1.00B22,2013-04-19 09:44:00,
2013-04-19 05:49:00,66.9,63.5,29.66,South,188,0.0,2.0,89,0.00,,,0.00,WeatherCatV1.00B22,2013-04-19 09:49:00,
2013-04-19 05:54:00,66.9,63.5,29.66,SSW,209,0.0,2.0,89,0.00,,,0.00,WeatherCatV1.00B22,2013-04-19 09:54:00,
2013-04-19 05:59:00,66.9,63.5,29.66,SSW,195,0.0,2.0,89,0.00,,,0.00,WeatherCatV1.00B22,2013-04-19 09:59:00,
2013-04-19 06:04:00,66.9,63.5,29.66,SW,236,1.0,3.0,89,0.00,,,0.00,WeatherCatV1.00B22,2013-04-19 10:04:00,
2013-04-19 06:09:00,66.9,63.2,29.66,South,188,3.0,3.0,88,0.00,,,0.00,WeatherCatV1.00B22,2013-04-19 10:09:00,
2013-04-19 06:14:00,66.9,63.2,29.66,South,190,0.0,3.0,88,0.00,,,0.00,WeatherCatV1.00B22,2013-04-19 10:14:00,
2013-04-19 06:19:00,66.9,63.2,29.66,SW,236,0.0,1.0,88,0.00,,,0.00,WeatherCatV1.00B22,2013-04-19 10:19:00,
2013-04-19 06:24:00,66.9,63.2,29.66,South,184,2.0,2.0,88,0.00,,,0.00,WeatherCatV1.00B22,2013-04-19 10:24:00,
2013-04-19 06:29:00,66.9,63.2,29.66,SW,222,1.0,2.0,88,0.00,,,0.00,WeatherCatV1.00B22,2013-04-19 10:29:00,
2013-04-19 06:34:00,66.9,63.2,29.66,SSW,208,2.0,2.0,88,0.00,,,0.00,WeatherCatV1.00B22,2013-04-19 10:34:00,
2013-04-19 06:39:00,66.9,63.2,29.66,SSW,209,2.0,2.0,88,0.00,,,0.00,WeatherCatV1.00B22,2013-04-19 10:39:00,
2013-04-19 06:44:00,66.9,63.2,29.66,WSW,252,1.0,3.0,88,0.00,,,0.00,WeatherCatV1.00B22,2013-04-19 10:44:00,
2013-04-19 06:49:00,67.0,63.3,29.66,WSW,249,1.0,3.0,88,0.00,,,0.00,WeatherCatV1.00B22,2013-04-19 10:49:00,
2013-04-19 06:54:00,66.9,63.2,29.67,SW,231,2.0,3.0,88,0.00,,,0.00,WeatherCatV1.00B22,2013-04-19 10:54:00,
2013-04-19 06:59:00,66.9,63.2,29.67,South,179,2.0,3.0,88,0.00,,,0.00,WeatherCatV1.00B22,2013-04-19 10:59:00,
2013-04-19 07:04:00,67.0,63.3,29.67,South,182,2.0,3.0,88,0.00,,,0.00,WeatherCatV1.00B22,2013-04-19 11:04:00,
2013-04-19 07:09:00,67.0,63.3,29.67,SSW,195,2.0,3.0,88,0.00,,,0.00,WeatherCatV1.00B22,2013-04-19 11:09:00,
2013-04-19 07:14:00,67.0,63.3,29.67,South,171,2.0,3.0,88,0.00,,,0.00,WeatherCatV1.00B22,2013-04-19 11:14:00,
2013-04-19 07:19:00,67.0,63.3,29.68,WSW,244,0.0,1.0,88,0.00,,,0.00,WeatherCatV1.00B22,2013-04-19 11:19:00,
2013-04-19 07:24:00,67.0,63.3,29.68,SSW,198,1.0,3.0,88,0.00,,,0.00,WeatherCatV1.00B22,2013-04-19 11:24:00,
2013-04-19 07:27:00,67.0,63.3,29.68,South,180,3.0,3.0,88,0.00,,,0.00,WeatherCatV1.00B22,2013-04-19 11:27:00,
2013-04-19 07:32:00,67.1,63.4,29.69,SW,227,0.0,4.0,88,0.00,,,0.00,WeatherCatV1.00B22,2013-04-19 11:32:00,
2013-04-19 07:37:00,67.1,63.4,29.69,South,182,1.0,3.0,88,0.00,,,0.00,WeatherCatV1.00B22,2013-04-19 11:37:00,
2013-04-19 07:42:00,67.1,63.4,29.68,WSW,249,3.0,5.0,88,0.00,,,0.00,WeatherCatV1.00B22,2013-04-19 11:42:00,
2013-04-19 07:47:00,67.1,63.4,29.68,SSW,202,1.0,2.0,88,0.00,,,0.00,WeatherCatV1.00B22,2013-04-19 11:47:00,
2013-04-19 07:52:00,67.1,63.4,29.68,SSW,193,3.0,3.0,88,0.00,,,0.00,WeatherCatV1.00B22,2013-04-19 11:52:00,
2013-04-19 07:57:00,67.1,63.4,29.68,SW,217,2.0,4.0,88,0.00,,,0.00,WeatherCatV1.00B22,2013-04-19 11:57:00,
2013-04-19 08:02:00,67.2,63.5,29.68,SSW,203,1.0,4.0,88,0.00,,,0.00,WeatherCatV1.00B22,2013-04-19 12:02:00,
2013-04-19 08:07:00,67.2,63.2,29.68,South,183,1.0,3.0,87,0.00,,,0.00,WeatherCatV1.00B22,2013-04-19 12:07:00,
2013-04-19 08:12:00,67.2,63.5,29.68,South,188,2.0,4.0,88,0.00,,,0.00,WeatherCatV1.00B22,2013-04-19 12:12:00,
2013-04-19 08:17:00,67.2,63.2,29.68,SW,217,2.0,3.0,87,0.00,,,0.00,WeatherCatV1.00B22,2013-04-19 12:17:00,
2013-04-19 08:22:00,67.3,63.3,29.68,SSW,202,0.0,3.0,87,0.00,,,0.00,WeatherCatV1.00B22,2013-04-19 12:22:00,
2013-04-19 08:27:00,67.3,63.6,29.68,NW,310,2.0,3.0,88,0.00,,,0.00,WeatherCatV1.00B22,2013-04-19 12:27:00,
2013-04-19 08:32:00,67.3,63.3,29.68,WSW,248,1.0,3.0,87,0.00,,,0.00,WeatherCatV1.00B22,2013-04-19 12:32:00,
2013-04-19 08:37:00,67.4,63.4,29.67,SW,232,2.0,5.0,87,0.00,,,0.00,WeatherCatV1.00B22,2013-04-19 12:37:00,
2013-04-19 08:42:00,67.4,63.4,29.67,SSW,202,2.0,5.0,87,0.00,,,0.00,WeatherCatV1.00B22,2013-04-19 12:42:00,
2013-04-19 08:47:00,67.5,63.5,29.66,SW,234,2.0,4.0,87,0.00,,,0.00,WeatherCatV1.00B22,2013-04-19 12:47:00,
2013-04-19 08:52:00,67.6,63.6,29.67,SSW,201,0.0,2.0,87,0.00,,,0.00,WeatherCatV1.00B22,2013-04-19 12:52:00,
2013-04-19 08:57:00,67.7,63.7,29.66,SSW,210,1.0,2.0,87,0.00,,,0.00,WeatherCatV1.00B22,2013-04-19 12:57:00,
2013-04-19 09:02:00,67.7,64.0,29.66,South,180,2.0,2.0,88,0.00,,,0.00,WeatherCatV1.00B22,2013-04-19 13:02:00,
2013-04-19 09:07:00,67.7,64.0,29.65,SW,233,0.0,2.0,88,0.00,,,0.00,WeatherCatV1.00B22,2013-04-19 13:07:00,
2013-04-19 09:12:00,67.8,64.1,29.65,SSW,196,2.0,3.0,88,0.00,,,0.00,WeatherCatV1.00B22,2013-04-19 13:12:00,
2013-04-19 09:17:00,67.8,64.4,29.65,SSW,201,0.0,1.0,89,0.00,,,0.00,WeatherCatV1.00B22,2013-04-19 13:17:00,
2013-04-19 09:22:00,67.8,64.4,29.65,SW,225,1.0,3.0,89,0.00,,,0.00,WeatherCatV1.00B22,2013-04-19 13:22:00,
2013-04-19 09:27:00,67.8,64.4,29.64,SW,236,0.0,3.0,89,0.00,,,0.01,WeatherCatV1.00B22,2013-04-19 13:27:00,
2013-04-19 09:32:00,67.7,64.7,29.64,SW,228,1.0,2.0,90,0.00,,,0.01,WeatherCatV1.00B22,2013-04-19 13:32:00,
2013-04-19 09:37:00,67.7,64.7,29.64,SSW,202,3.0,3.0,90,0.00,,,0.01,WeatherCatV1.00B22,2013-04-19 13:37:00,
2013-04-19 09:42:00,67.6,64.9,29.64,South,182,0.0,1.0,91,0.00,,,0.01,WeatherCatV1.00B22,2013-04-19 13:42:00,
2013-04-19 09:47:00,67.6,64.9,29.64,SSW,200,1.0,2.0,91,0.00,,,0.01,WeatherCatV1.00B22,2013-04-19 13:47:00,
2013-04-19 09:52:00,67.6,64.9,29.63,SW,215,1.0,3.0,91,0.00,,,0.01,WeatherCatV1.00B22,2013-04-19 13:52:00,
2013-04-19 09:57:00,67.6,64.9,29.63,SW,215,0.0,1.0,91,0.00,,,0.01,WeatherCatV1.00B22,2013-04-19 13:57:00,
2013-04-19 10:02:00,67.6,64.6,29.63,SW,219,1.0,2.0,90,0.00,,,0.01,WeatherCatV1.00B22,2013-04-19 14:02:00,
2013-04-19 10:07:00,67.7,65.0,29.63,SW,219,0.0,1.0,91,0.00,,,0.01,WeatherCatV1.00B22,2013-04-19 14:07:00,
2013-04-19 10:12:00,67.7,65.0,29.63,South,191,0.0,2.0,91,0.00,,,0.01,WeatherCatV1.00B22,2013-04-19 14:12:00,
2013-04-19 10:17:00,67.7,65.0,29.63,SSW,202,0.0,3.0,91,0.00,,,0.01,WeatherCatV1.00B22,2013-04-19 14:17:00,
2013-04-19 10:22:00,67.8,65.1,29.62,SSW,200,0.0,3.0,91,0.00,,,0.01,WeatherCatV1.00B22,2013-04-19 14:22:00,
2013-04-19 10:27:00,67.9,65.2,29.62,SSW,202,2.0,3.0,91,0.00,,,0.01,WeatherCatV1.00B22,2013-04-19 14:27:00,
2013-04-19 10:32:00,68.1,65.4,29.62,WSW,253,3.0,4.0,91,0.00,,,0.01,WeatherCatV1.00B22,2013-04-19 14:32:00,
2013-04-19 10:37:00,68.1,65.0,29.62,South,189,1.0,5.0,90,0.00,,,0.01,WeatherCatV1.00B22,2013-04-19 14:37:00,
2013-04-19 10:42:00,68.3,65.2,29.62,SSW,209,3.0,3.0,90,0.00,,,0.01,WeatherCatV1.00B22,2013-04-19 14:42:00,
2013-04-19 10:47:00,68.4,65.3,29.61,SSE,153,1.0,4.0,90,0.00,,,0.01,WeatherCatV1.00B22,2013-04-19 14:47:00,
2013-04-19 10:52:00,68.5,65.4,29.60,SSW,209,2.0,5.0,90,0.00,,,0.01,WeatherCatV1.00B22,2013-04-19 14:52:00,
2013-04-19 10:57:00,68.5,65.4,29.60,SW,223,3.0,4.0,90,0.00,,,0.01,WeatherCatV1.00B22,2013-04-19 14:57:00,
2013-04-19 11:02:00,68.4,65.3,29.60,WSW,244,2.0,4.0,90,0.00,,,0.02,WeatherCatV1.00B22,2013-04-19 15:02:00,
2013-04-19 11:07:00,68.3,65.6,29.60,WSW,255,2.0,4.0,91,0.09,,,0.03,WeatherCatV1.00B22,2013-04-19 15:07:00,
2013-04-19 11:12:00,68.1,65.7,29.60,SSW,198,3.0,5.0,92,0.34,,,0.04,WeatherCatV1.00B22,2013-04-19 15:12:00,
2013-04-19 11:17:00,67.9,65.5,29.60,South,170,3.0,5.0,92,0.41,,,0.07,WeatherCatV1.00B22,2013-04-19 15:17:00,
2013-04-19 11:22:00,67.7,65.6,29.59,SSW,208,3.0,6.0,93,0.35,,,0.09,WeatherCatV1.00B22,2013-04-19 15:22:00,
2013-04-19 11:27:00,67.5,65.7,29.62,NNE,18,3.0,5.0,94,2.07,,,0.22,WeatherCatV1.00B22,2013-04-19 15:27:00,
2013-04-19 11:32:00,67.0,64.6,29.64,ENE,64,2.0,3.0,92,0.51,,,0.31,WeatherCatV1.00B22,2013-04-19 15:32:00,
2013-04-19 11:37:00,66.2,63.8,29.64,North,355,3.0,9.0,92,0.19,,,0.33,WeatherCatV1.00B22,2013-04-19 15:37:00,
2013-04-19 11:42:00,64.8,61.8,29.66,NNW,348,1.0,4.0,90,0.19,,,0.35,WeatherCatV1.00B22,2013-04-19 15:42:00,
2013-04-19 11:47:00,63.4,60.1,29.67,West,279,2.0,8.0,89,0.28,,,0.37,WeatherCatV1.00B22,2013-04-19 15:47:00,
2013-04-19 11:52:00,62.2,59.5,29.67,East,97,5.0,8.0,91,0.44,,,0.40,WeatherCatV1.00B22,2013-04-19 15:52:00,
2013-04-19 11:57:00,61.3,58.6,29.67,South,188,1.0,4.0,91,0.13,,,0.41,WeatherCatV1.00B22,2013-04-19 15:57:00,
2013-04-19 12:02:00,60.5,57.9,29.67,SE,124,4.0,4.0,91,0.06,,,0.41,WeatherCatV1.00B22,2013-04-19 16:02:00,
2013-04-19 12:07:00,59.9,57.3,29.67,North,5,0.0,3.0,91,0.06,,,0.42,WeatherCatV1.00B22,2013-04-19 16:07:00,
2013-04-19 12:12:00,59.4,57.1,29.68,SE,142,0.0,7.0,92,0.09,,,0.43,WeatherCatV1.00B22,2013-04-19 16:12:00,
2013-04-19 12:17:00,59.0,56.7,29.68,SE,144,0.0,4.0,92,0.10,,,0.44,WeatherCatV1.00B22,2013-04-19 16:17:00,
2013-04-19 12:22:00,58.7,56.7,29.68,West,275,1.0,6.0,93,0.09,,,0.45,WeatherCatV1.00B22,2013-04-19 16:22:00,
2013-04-19 12:27:00,58.3,56.3,29.69,West,275,2.0,5.0,93,0.09,,,0.45,WeatherCatV1.00B22,2013-04-19 16:27:00,
2013-04-19 12:32:00,58.0,56.0,29.69,East,80,5.0,5.0,93,0.17,,,0.47,WeatherCatV1.00B22,2013-04-19 16:32:00,
2013-04-19 12:37:00,57.5,55.2,29.68,NW,323,1.0,2.0,92,0.18,,,0.48,WeatherCatV1.00B22,2013-04-19 16:37:00,
2013-04-19 12:42:00,57.1,55.1,29.69,WNW,300,3.0,5.0,93,0.20,,,0.50,WeatherCatV1.00B22,2013-04-19 16:42:00,
2013-04-19 12:47:00,56.7,54.7,29.68,WNW,288,1.0,3.0,93,0.12,,,0.51,WeatherCatV1.00B22,2013-04-19 16:47:00,
2013-04-19 12:52:00,56.5,54.5,29.69,NNW,342,2.0,2.0,93,0.17,,,0.52,WeatherCatV1.00B22,2013-04-19 16:52:00,
2013-04-19 12:57:00,56.2,54.2,29.68,NE,56,1.0,1.0,93,0.09,,,0.53,WeatherCatV1.00B22,2013-04-19 16:57:00,
2013-04-19 13:02:00,55.9,53.9,29.68,West,259,1.0,2.0,93,0.09,,,0.53,WeatherCatV1.00B22,2013-04-19 17:02:00,
2013-04-19 13:07:00,55.7,54.0,29.69,West,271,1.0,3.0,94,0.09,,,0.54,WeatherCatV1.00B22,2013-04-19 17:07:00,
2013-04-19 13:12:00,55.5,53.5,29.68,SSE,148,2.0,3.0,93,0.07,,,0.54,WeatherCatV1.00B22,2013-04-19 17:12:00,
2013-04-19 13:17:00,55.1,53.1,29.68,SW,214,2.0,2.0,93,0.05,,,0.55,WeatherCatV1.00B22,2013-04-19 17:17:00,
2013-04-19 13:22:00,54.9,52.9,29.68,West,267,0.0,2.0,93,0.05,,,0.55,WeatherCatV1.00B22,2013-04-19 17:22:00,
2013-04-19 13:27:00,54.8,52.8,29.69,SW,224,1.0,3.0,93,0.08,,,0.56,WeatherCatV1.00B22,2013-04-19 17:27:00,
2013-04-19 13:32:00,54.7,53.0,29.70,NE,49,2.0,7.0,94,0.07,,,0.57,WeatherCatV1.00B22,2013-04-19 17:32:00,
2013-04-19 13:37:00,54.6,52.9,29.70,ESE,111,0.0,2.0,94,0.07,,,0.57,WeatherCatV1.00B22,2013-04-19 17:37:00,
2013-04-19 13:42:00,54.4,52.7,29.70,North,355,1.0,5.0,94,0.08,,,0.58,WeatherCatV1.00B22,2013-04-19 17:42:00,
2013-04-19 13:47:00,54.4,52.4,29.70,West,278,0.0,3.0,93,0.07,,,0.58,WeatherCatV1.00B22,2013-04-19 17:47:00,
2013-04-19 13:52:00,54.1,52.4,29.71,NNE,15,0.0,2.0,94,0.05,,,0.58,WeatherCatV1.00B22,2013-04-19 17:52:00,
2013-04-19 13:57:00,54.1,52.4,29.71,WSW,244,2.0,6.0,94,0.00,,,0.58,WeatherCatV1.00B22,2013-04-19 17:57:00,
2013-04-19 14:02:00,54.0,52.3,29.71,NNW,340,1.0,3.0,94,0.00,,,0.58,WeatherCatV1.00B22,2013-04-19 18:02:00,
2013-04-19 14:07:00,53.8,52.1,29.72,NNE,27,0.0,2.0,94,0.00,,,0.58,WeatherCatV1.00B22,2013-04-19 18:07:00,
2013-04-19 14:12:00,53.7,52.0,29.73,NNW,346,1.0,3.0,94,0.00,,,0.59,WeatherCatV1.00B22,2013-04-19 18:12:00,
2013-04-19 14:17:00,53.7,52.3,29.72,NW,317,0.0,3.0,95,0.00,,,0.59,WeatherCatV1.00B22,2013-04-19 18:17:00,
2013-04-19 14:22:00,53.6,51.9,29.71,NNE,15,1.0,2.0,94,0.00,,,0.59,WeatherCatV1.00B22,2013-04-19 18:22:00,
2013-04-19 14:27:00,53.5,52.1,29.70,South,183,0.0,1.0,95,0.00,,,0.59,WeatherCatV1.00B22,2013-04-19 18:27:00,
2013-04-19 14:32:00,53.6,52.2,29.71,SW,229,0.0,3.0,95,0.00,,,0.59,WeatherCatV1.00B22,2013-04-19 18:32:00,
2013-04-19 14:37:00,53.6,51.9,29.71,WNW,298,0.0,2.0,94,0.00,,,0.60,WeatherCatV1.00B22,2013-04-19 18:37:00,
2013-04-19 14:42:00,53.5,52.1,29.70,NNW,340,1.0,4.0,95,0.00,,,0.60,WeatherCatV1.00B22,2013-04-19 18:42:00,
2013-04-19 14:47:00,53.3,51.3,29.69,NNE,13,0.0,2.0,93,0.00,,,0.60,WeatherCatV1.00B22,2013-04-19 18:47:00,
2013-04-19 14:52:00,53.3,51.6,29.69,West,265,4.0,4.0,94,0.00,,,0.60,WeatherCatV1.00B22,2013-04-19 18:52:00,
2013-04-19 14:57:00,53.1,51.1,29.67,ENE,76,0.0,1.0,93,0.00,,,0.60,WeatherCatV1.00B22,2013-04-19 18:57:00,
2013-04-19 15:02:00,53.0,51.0,29.69,West,269,1.0,5.0,93,0.00,,,0.60,WeatherCatV1.00B22,2013-04-19 19:02:00,
2013-04-19 15:07:00,52.8,50.8,29.68,SW,228,1.0,3.0,93,0.00,,,0.60,WeatherCatV1.00B22,2013-04-19 19:07:00,
2013-04-19 15:12:00,52.7,50.7,29.69,NNE,18,3.0,3.0,93,0.00,,,0.60,WeatherCatV1.00B22,2013-04-19 19:12:00,
2013-04-19 15:17:00,52.7,51.0,29.68,South,169,0.0,3.0,94,0.00,,,0.60,WeatherCatV1.00B22,2013-04-19 19:17:00,
2013-04-19 15:22:00,52.7,51.0,29.67,SW,232,0.0,2.0,94,0.00,,,0.60,WeatherCatV1.00B22,2013-04-19 19:22:00,
2013-04-19 15:27:00,52.8,51.1,29.68,WSW,240,0.0,2.0,94,0.00,,,0.60,WeatherCatV1.00B22,2013-04-19 19:27:00,
2013-04-19 15:32:00,52.8,51.1,29.68,NNE,15,0.0,4.0,94,0.00,,,0.60,WeatherCatV1.00B22,2013-04-19 19:32:00,
2013-04-19 15:37:00,52.8,50.8,29.68,WSW,239,1.0,2.0,93,0.00,,,0.60,WeatherCatV1.00B22,2013-04-19 19:37:00,
2013-04-19 15:42:00,52.9,50.9,29.68,SSE,156,0.0,1.0,93,0.00,,,0.60,WeatherCatV1.00B22,2013-04-19 19:42:00,
2013-04-19 15:47:00,53.0,51.0,29.69,NE,49,3.0,3.0,93,0.00,,,0.60,WeatherCatV1.00B22,2013-04-19 19:47:00,
2013-04-19 15:52:00,53.1,51.1,29.69,West,279,2.0,2.0,93,0.00,,,0.60,WeatherCatV1.00B22,2013-04-19 19:52:00,
2013-04-19 15:57:00,53.2,51.5,29.71,SW,231,0.0,3.0,94,0.00,,,0.60,WeatherCatV1.00B22,2013-04-19 19:57:00,
2013-04-19 16:02:00,53.2,50.9,29.72,SE,139,1.0,3.0,92,0.00,,,0.60,WeatherCatV1.00B22,2013-04-19 20:02:00,
2013-04-19 16:07:00,53.2,51.2,29.72,NNW,332,2.0,2.0,93,0.00,,,0.60,WeatherCatV1.00B22,2013-04-19 20:07:00,
2013-04-19 16:12:00,53.3,51.0,29.71,NE,40,1.0,2.0,92,0.00,,,0.60,WeatherCatV1.00B22,2013-04-19 20:12:00,
2013-04-19 16:17:00,53.3,50.7,29.71,SW,236,3.0,7.0,91,0.00,,,0.60,WeatherCatV1.00B22,2013-04-19 20:17:00,
2013-04-19 16:22:00,53.2,50.6,29.70,North,355,4.0,4.0,91,0.00,,,0.60,WeatherCatV1.00B22,2013-04-19 20:22:00,
2013-04-19 16:27:00,53.2,50.6,29.69,SSW,198,0.0,2.0,91,0.00,,,0.60,WeatherCatV1.00B22,2013-04-19 20:27:00,
2013-04-19 16:32:00,53.1,50.2,29.69,SW,232,2.0,4.0,90,0.00,,,0.60,WeatherCatV1.00B22,2013-04-19 20:32:00,
2013-04-19 16:37:00,53.0,50.4,29.71,WNW,282,1.0,2.0,91,0.00,,,0.60,WeatherCatV1.00B22,2013-04-19 20:37:00,
2013-04-19 16:42:00,53.0,50.4,29.73,NE,34,1.0,6.0,91,0.00,,,0.60,WeatherCatV1.00B22,2013-04-19 20:42:00,
2013-04-19 16:47:00,53.0,50.4,29.73,NNE,13,3.0,3.0,91,0.00,,,0.60,WeatherCatV1.00B22,2013-04-19 20:47:00,
2013-04-19 16:52:00,52.9,50.0,29.73,SW,231,0.0,3.0,90,0.00,,,0.60,WeatherCatV1.00B22,2013-04-19 20:52:00,
2013-04-19 16:57:00,52.8,49.9,29.72,South,174,0.0,3.0,90,0.00,,,0.60,WeatherCatV1.00B22,2013-04-19 20:57:00,
2013-04-19 17:02:00,52.6,49.8,29.75,ENE,71,2.0,2.0,90,0.00,,,0.60,WeatherCatV1.00B22,2013-04-19 21:02:00,
2013-04-19 17:07:00,52.5,49.9,29.73,NNE,28,1.0,3.0,91,0.00,,,0.60,WeatherCatV1.00B22,2013-04-19 21:07:00,
2013-04-19 17:12:00,52.4,49.8,29.71,North,5,0.0,3.0,91,0.00,,,0.60,WeatherCatV1.00B22,2013-04-19 21:12:00,
2013-04-19 17:17:00,52.3,49.8,29.72,WNW,286,0.0,2.0,91,0.00,,,0.60,WeatherCatV1.00B22,2013-04-19 21:17:00,
2013-04-19 17:22:00,52.1,49.6,29.73,ENE,60,2.0,2.0,91,0.00,,,0.60,WeatherCatV1.00B22,2013-04-19 21:22:00,
2013-04-19 17:27:00,52.0,49.7,29.72,SW,232,0.0,3.0,92,0.00,,,0.60,WeatherCatV1.00B22,2013-04-19 21:27:00,
2013-04-19 17:32:00,51.9,49.6,29.71,WSW,252,1.0,4.0,92,0.00,,,0.60,WeatherCatV1.00B22,2013-04-19 21:32:00,
2013-04-19 17:37:00,51.9,49.4,29.73,NNW,329,1.0,3.0,91,0.00,,,0.60,WeatherCatV1.00B22,2013-04-19 21:37:00,
2013-04-19 17:42:00,51.8,49.3,29.72,SW,235,0.0,3.0,91,0.00,,,0.60,WeatherCatV1.00B22,2013-04-19 21:42:00,
2013-04-19 17:47:00,51.9,49.6,29.71,SW,231,0.0,4.0,92,0.00,,,0.60,WeatherCatV1.00B22,2013-04-19 21:47:00,
2013-04-19 17:52:00,51.9,49.4,29.70,NNE,22,0.0,2.0,91,0.00,,,0.60,WeatherCatV1.00B22,2013-04-19 21:52:00,
2013-04-19 17:57:00,51.9,49.4,29.71,SW,217,2.0,3.0,91,0.00,,,0.60,WeatherCatV1.00B22,2013-04-19 21:57:00,
2013-04-19 18:02:00,51.9,49.4,29.72,North,351,0.0,3.0,91,0.00,,,0.60,WeatherCatV1.00B22,2013-04-19 22:02:00,
2013-04-19 18:07:00,51.9,49.4,29.72,West,274,0.0,1.0,91,0.00,,,0.60,WeatherCatV1.00B22,2013-04-19 22:07:00,
2013-04-19 18:12:00,51.9,49.4,29.72,SW,231,0.0,2.0,91,0.00,,,0.60,WeatherCatV1.00B22,2013-04-19 22:12:00,
2013-04-19 18:17:00,51.9,49.4,29.72,SW,219,2.0,3.0,91,0.00,,,0.60,WeatherCatV1.00B22,2013-04-19 22:17:00,
2013-04-19 18:22:00,51.9,49.1,29.71,NW,317,1.0,3.0,90,0.00,,,0.60,WeatherCatV1.00B22,2013-04-19 22:22:00,
2013-04-19 18:27:00,51.9,49.1,29.70,South,184,1.0,2.0,90,0.00,,,0.60,WeatherCatV1.00B22,2013-04-19 22:27:00,
2013-04-19 18:32:00,51.9,49.4,29.72,NNE,15,0.0,3.0,91,0.00,,,0.60,WeatherCatV1.00B22,2013-04-19 22:32:00,
2013-04-19 18:37:00,51.9,49.1,29.71,WNW,284,1.0,2.0,90,0.00,,,0.60,WeatherCatV1.00B22,2013-04-19 22:37:00,
2013-04-19 18:42:00,51.8,48.7,29.72,SSW,210,0.0,1.0,89,0.00,,,0.60,WeatherCatV1.00B22,2013-04-19 22:42:00,
2013-04-19 18:47:00,51.8,48.7,29.72,South,175,0.0,4.0,89,0.00,,,0.60,WeatherCatV1.00B22,2013-04-19 22:47:00,
2013-04-19 18:52:00,51.7,48.3,29.73,NNE,15,0.0,1.0,88,0.00,,,0.60,WeatherCatV1.00B22,2013-04-19 22:52:00,
2013-04-19 18:57:00,51.7,48.6,29.72,SSW,208,0.0,3.0,89,0.00,,,0.60,WeatherCatV1.00B22,2013-04-19 22:57:00,
2013-04-19 19:02:00,51.6,48.2,29.71,SW,235,1.0,4.0,88,0.00,,,0.60,WeatherCatV1.00B22,2013-04-19 23:02:00,
2013-04-19 19:07:00,51.6,47.9,29.72,SW,233,0.0,4.0,87,0.00,,,0.60,WeatherCatV1.00B22,2013-04-19 23:07:00,
2013-04-19 19:12:00,51.5,47.5,29.72,North,350,0.0,4.0,86,0.00,,,0.60,WeatherCatV1.00B22,2013-04-19 23:12:00,
2013-04-19 19:17:00,51.5,47.8,29.72,SSE,161,0.0,2.0,87,0.00,,,0.60,WeatherCatV1.00B22,2013-04-19 23:17:00,
2013-04-19 19:22:00,51.5,47.5,29.73,NW,308,0.0,2.0,86,0.00,,,0.60,WeatherCatV1.00B22,2013-04-19 23:22:00,
2013-04-19 19:27:00,51.4,46.7,29.72,WSW,250,2.0,4.0,84,0.00,,,0.60,WeatherCatV1.00B22,2013-04-19 23:27:00,
2013-04-19 19:32:00,51.4,46.7,29.72,NNE,33,0.0,2.0,84,0.00,,,0.60,WeatherCatV1.00B22,2013-04-19 23:32:00,
2013-04-19 19:37:00,51.3,47.3,29.71,NNW,347,2.0,7.0,86,0.00,,,0.60,WeatherCatV1.00B22,2013-04-19 23:37:00,
2013-04-19 19:42:00,51.0,46.3,29.71,ENE,60,0.0,2.0,84,0.00,,,0.60,WeatherCatV1.00B22,2013-04-19 23:42:00,
2013-04-19 19:47:00,50.9,46.2,29.72,WNW,294,0.0,4.0,84,0.00,,,0.60,WeatherCatV1.00B22,2013-04-19 23:47:00,
2013-04-19 19:52:00,50.8,45.8,29.72,West,280,3.0,4.0,83,0.00,,,0.60,WeatherCatV1.00B22,2013-04-19 23:52:00,
2013-04-19 19:57:00,50.7,46.0,29.72,NW,304,0.0,4.0,84,0.00,,,0.60,WeatherCatV1.00B22,2013-04-19 23:57:00,
2013-04-19 20:02:00,50.6,45.9,29.73,West,263,2.0,3.0,84,0.00,,,0.60,WeatherCatV1.00B22,2013-04-20 00:02:00,
2013-04-19 20:07:00,50.6,45.9,29.73,WSW,238,0.0,1.0,84,0.00,,,0.60,WeatherCatV1.00B22,2013-04-20 00:07:00,
2013-04-19 20:12:00,50.6,46.3,29.74,SE,143,0.0,2.0,85,0.00,,,0.60,WeatherCatV1.00B22,2013-04-20 00:12:00,
2013-04-19 20:17:00,50.5,45.5,29.74,South,180,4.0,4.0,83,0.00,,,0.60,WeatherCatV1.00B22,2013-04-20 00:17:00,
2013-04-19 20:22:00,50.4,45.4,29.74,ESE,111,0.0,1.0,83,0.00,,,0.60,WeatherCatV1.00B22,2013-04-20 00:22:00,
2013-04-19 20:27:00,50.3,45.0,29.74,ESE,117,0.0,4.0,82,0.00,,,0.60,WeatherCatV1.00B22,2013-04-20 00:27:00,
2013-04-19 20:32:00,50.3,45.3,29.75,ESE,115,0.0,0.0,83,0.00,,,0.60,WeatherCatV1.00B22,2013-04-20 00:32:00,
2013-04-19 20:37:00,50.1,45.1,29.75,WNW,288,1.0,4.0,83,0.00,,,0.60,WeatherCatV1.00B22,2013-04-20 00:37:00,
2013-04-19 20:42:00,50.1,45.1,29.76,WNW,291,1.0,1.0,83,0.00,,,0.60,WeatherCatV1.00B22,2013-04-20 00:42:00,
2013-04-19 20:47:00,50.0,44.7,29.76,SW,221,0.0,5.0,82,0.00,,,0.60,WeatherCatV1.00B22,2013-04-20 00:47:00,
2013-04-19 20:52:00,49.9,44.3,29.76,ENE,65,2.0,3.0,81,0.00,,,0.60,WeatherCatV1.00B22,2013-04-20 00:52:00,
2013-04-19 20:57:00,49.9,44.3,29.77,WSW,250,2.0,2.0,81,0.00,,,0.60,WeatherCatV1.00B22,2013-04-20 00:57:00,
2013-04-19 21:02:00,49.8,43.9,29.77,WSW,242,0.0,3.0,80,0.00,,,0.60,WeatherCatV1.00B22,2013-04-20 01:02:00,
2013-04-19 21:07:00,49.8,44.5,29.78,SSE,156,3.0,3.0,82,0.00,,,0.60,WeatherCatV1.00B22,2013-04-20 01:07:00,
2013-04-19 21:12:00,49.7,43.8,29.79,SW,216,0.0,0.0,80,0.00,,,0.60,WeatherCatV1.00B22,2013-04-20 01:12:00,
2013-04-19 21:17:00,49.6,44.0,29.80,NNW,335,1.0,1.0,81,0.00,,,0.60,WeatherCatV1.00B22,2013-04-20 01:17:00,
2013-04-19 21:22:00,49.6,44.0,29.80,SSW,192,2.0,4.0,81,0.00,,,0.60,WeatherCatV1.00B22,2013-04-20 01:22:00,
2013-04-19 21:27:00,49.5,43.6,29.80,NNW,341,1.0,5.0,80,0.00,,,0.60,WeatherCatV1.00B22,2013-04-20 01:27:00,
2013-04-19 21:32:00,49.5,43.6,29.81,SW,234,3.0,5.0,80,0.00,,,0.60,WeatherCatV1.00B22,2013-04-20 01:32:00,
2013-04-19 21:37:00,49.3,43.1,29.81,NW,315,0.0,1.0,79,0.00,,,0.60,WeatherCatV1.00B22,2013-04-20 01:37:00,
2013-04-19 21:42:00,49.2,42.6,29.81,NNW,343,0.0,3.0,78,0.00,,,0.60,WeatherCatV1.00B22,2013-04-20 01:42:00,
2013-04-19 21:47:00,49.2,43.3,29.81,WSW,252,2.0,3.0,80,0.00,,,0.60,WeatherCatV1.00B22,2013-04-20 01:47:00,
2013-04-19 21:52:00,49.1,42.9,29.82,WNW,284,1.0,2.0,79,0.00,,,0.60,WeatherCatV1.00B22,2013-04-20 01:52:00,
2013-04-19 21:57:00,49.1,42.9,29.82,WNW,284,0.0,1.0,79,0.00,,,0.60,WeatherCatV1.00B22,2013-04-20 01:57:00,
2013-04-19 22:02:00,49.0,42.8,29.82,WNW,294,1.0,3.0,79,0.00,,,0.60,WeatherCatV1.00B22,2013-04-20 02:02:00,
2013-04-19 22:07:00,48.9,43.0,29.82,North,355,2.0,4.0,80,0.00,,,0.60,WeatherCatV1.00B22,2013-04-20 02:07:00,
2013-04-19 22:12:00,48.7,42.5,29.82,West,265,1.0,1.0,79,0.00,,,0.60,WeatherCatV1.00B22,2013-04-20 02:12:00,
2013-04-19 22:17:00,48.6,42.4,29.82,NW,306,1.0,2.0,79,0.00,,,0.60,WeatherCatV1.00B22,2013-04-20 02:17:00,
2013-04-19 22:22:00,48.5,42.0,29.83,NNE,20,0.0,1.0,78,0.00,,,0.60,WeatherCatV1.00B22,2013-04-20 02:22:00,
2013-04-19 22:27:00,48.5,42.3,29.83,ESE,117,0.0,2.0,79,0.00,,,0.60,WeatherCatV1.00B22,2013-04-20 02:27:00,
2013-04-19 22:32:00,48.3,42.1,29.83,East,90,0.0,2.0,79,0.00,,,0.60,WeatherCatV1.00B22,2013-04-20 02:32:00,
2013-04-19 22:37:00,48.1,41.6,29.84,NNW,335,1.0,5.0,78,0.00,,,0.60,WeatherCatV1.00B22,2013-04-20 02:37:00,
2013-04-19 22:42:00,48.0,41.8,29.84,WNW,292,2.0,6.0,79,0.00,,,0.60,WeatherCatV1.00B22,2013-04-20 02:42:00,
2013-04-19 22:47:00,47.9,41.4,29.84,NW,308,0.0,2.0,78,0.00,,,0.60,WeatherCatV1.00B22,2013-04-20 02:47:00,
2013-04-19 22:52:00,47.8,41.6,29.84,NNW,332,0.0,0.0,79,0.00,,,0.60,WeatherCatV1.00B22,2013-04-20 02:52:00,
2013-04-19 22:57:00,47.8,41.6,29.84,SE,143,0.0,1.0,79,0.00,,,0.60,WeatherCatV1.00B22,2013-04-20 02:57:00,
2013-04-19 23:02:00,47.7,41.2,29.85,NNW,333,0.0,0.0,78,0.00,,,0.60,WeatherCatV1.00B22,2013-04-20 03:02:00,
2013-04-19 23:07:00,47.6,41.1,29.85,ENE,73,1.0,2.0,78,0.00,,,0.60,WeatherCatV1.00B22,2013-04-20 03:07:00,
2013-04-19 23:12:00,47.5,41.3,29.85,South,189,2.0,2.0,79,0.00,,,0.60,WeatherCatV1.00B22,2013-04-20 03:12:00,
2013-04-19 23:17:00,47.4,40.9,29.85,NNW,337,0.0,3.0,78,0.00,,,0.60,WeatherCatV1.00B22,2013-04-20 03:17:00,
2013-04-19 23:22:00,47.3,41.1,29.85,West,273,0.0,0.0,79,0.00,,,0.60,WeatherCatV1.00B22,2013-04-20 03:22:00,
2013-04-19 23:27:00,47.2,41.3,29.85,West,273,0.0,1.0,80,0.00,,,0.60,WeatherCatV1.00B22,2013-04-20 03:27:00,
2013-04-19 23:32:00,47.2,41.0,29.85,West,273,0.0,1.0,79,0.00,,,0.60,WeatherCatV1.00B22,2013-04-20 03:32:00,
2013-04-19 23:37:00,47.1,41.3,29.85,West,264,0.0,2.0,80,0.00,,,0.60,WeatherCatV1.00B22,2013-04-20 03:37:00,
2013-04-19 23:42:00,47.1,41.3,29.85,West,264,0.0,0.0,80,0.00,,,0.60,WeatherCatV1.00B22,2013-04-20 03:42:00,
2013-04-19 23:47:00,46.9,40.7,29.85,WNW,293,0.0,2.0,79,0.00,,,0.60,WeatherCatV1.00B22,2013-04-20 03:47:00,
2013-04-19 23:52:00,46.9,40.7,29.85,West,267,0.0,1.0,79,0.00,,,0.60,WeatherCatV1.00B22,2013-04-20 03:52:00,
2013-04-19 23:57:00,46.9,41.1,29.85,SW,216,0.0,0.0,80,0.00,,,0.60,WeatherCatV1.00B22,2013-04-20 03:57:00,